Weather History for Miami, FL

Change the Weather History Date:

Monday, January 21, 2013

  Actual Average Record
Temperature  
Mean Temperature 75 °F 68 °F  
Max Temperature 81 °F 76 °F 85 °F (1953)
Min Temperature 69 °F 60 °F 34 °F (1985)
Degree Days  
Heating Degree Days 0 2  
Month to date heating degree days 4 42  
Since 1 July heating degree days 20 79  
Cooling Degree Days 10 5  
Month to date cooling degree days 201 105  
Year to date cooling degree days 201 105  
Growing Degree Days 25 (Base 50)    
Moisture  
Dew Point 66 °F    
Average Humidity 79    
Maximum Humidity 90    
Minimum Humidity 67    
Precipitation  
Precipitation T in 0.06 in 1.31 in (1956)
Month to date precipitation 0.54 1.06  
Year to date precipitation 0.54 1.06  
Snow  
Snow 0.00 in - - ()
Month to date snowfall 0.0  
Since 1 July snowfall 0.0  
Snow Depth 0.00 in    
Sea Level Pressure  
Sea Level Pressure 30.04 in    
Wind  
Wind Speed 4 mph (West)    
Max Wind Speed 14 mph    
Max Gust Speed 20 mph    
Visibility 10 miles    
Events      
T = Trace of Precipitation, MM = Missing Value Source: NWS Daily Summary

Daily Weather History Graph

Daily Weather History Graph

Search for Another Location

Airport:

Trip Planner

Search our weather history database for the weather conditions in past years. The results will help you decide how hot, cold, wet, or windy it might be!

Date:

Astronomy

Jan. 21, 2013 Rise Set
Actual Time 7:08 AM EST 5:56 PM EST
Civil Twilight 6:44 AM EST 6:21 PM EST
Nautical Twilight 6:16 AM EST 6:49 PM EST
Astronomical Twilight 5:48 AM EST 7:16 PM EST
Moon 1:37 PM EST 2:34 AM EST
Length of Visible Light 11h 37m
Length of Day
10h 48m
Waxing Gibbous, 75% of the Moon is Illuminated
Jan 21
Waxing Gibbous
Jan 26
Full
Feb 3
Last Quarter
Feb 10
New
Feb 17
First Quarter

Hourly Weather History & Observations

Time (EST) Temp. Dew Point Humidity Pressure Visibility Wind Dir Wind Speed Gust Speed Precip Events Conditions
12:53 AM 71.1 °F 66.0 °F 84% 30.05 in 10.0 mi North 4.6 mph - N/A   Mostly Cloudy
1:12 AM 71.6 °F 66.2 °F 83% 30.05 in 10.0 mi North 3.5 mph - N/A   Overcast
1:53 AM 71.1 °F 66.0 °F 84% 30.05 in 10.0 mi Calm Calm - N/A   Overcast
2:47 AM 69.8 °F 66.2 °F 88% 30.03 in 10.0 mi Calm Calm - N/A   Mostly Cloudy
2:53 AM 70.0 °F 66.9 °F 90% 30.04 in 10.0 mi Calm Calm - N/A   Mostly Cloudy
3:53 AM 69.8 °F 66.2 °F 88% 30.03 in 10.0 mi NNE 4.6 mph - N/A   Mostly Cloudy
4:53 AM 70.0 °F 66.9 °F 90% 30.02 in 10.0 mi NNE 3.5 mph - N/A   Mostly Cloudy
5:53 AM 70.0 °F 66.0 °F 87% 30.03 in 10.0 mi Calm Calm - N/A   Overcast
6:53 AM 70.0 °F 66.9 °F 90% 30.04 in 10.0 mi Calm Calm - N/A   Mostly Cloudy
7:53 AM 72.0 °F 68.0 °F 87% 30.06 in 10.0 mi Calm Calm - N/A   Mostly Cloudy
8:53 AM 75.0 °F 66.9 °F 76% 30.07 in 10.0 mi East 4.6 mph - N/A   Mostly Cloudy
9:53 AM 75.9 °F 66.9 °F 74% 30.08 in 10.0 mi East 4.6 mph - N/A   Mostly Cloudy
10:53 AM 79.0 °F 66.0 °F 64% 30.08 in 10.0 mi Variable 3.5 mph - N/A   Mostly Cloudy
11:53 AM 78.1 °F 66.0 °F 66% 30.06 in 10.0 mi SSE 6.9 mph - N/A   Mostly Cloudy
12:53 PM 78.1 °F 66.0 °F 66% 30.03 in 10.0 mi SSE 6.9 mph - N/A   Mostly Cloudy
1:53 PM 78.1 °F 66.0 °F 66% 30.00 in 10.0 mi SE 10.4 mph - N/A   Mostly Cloudy
2:53 PM 75.0 °F 68.0 °F 79% 29.99 in 10.0 mi South 10.4 mph 19.6 mph 0.00 in   Mostly Cloudy
3:53 PM 77.0 °F 68.0 °F 74% 29.99 in 10.0 mi South 6.9 mph - N/A   Mostly Cloudy
4:53 PM 79.0 °F 64.9 °F 62% 29.99 in 10.0 mi WSW 9.2 mph - N/A   Mostly Cloudy
5:53 PM 75.9 °F 64.9 °F 69% 30.01 in 10.0 mi WSW 9.2 mph - N/A   Mostly Cloudy
6:53 PM 73.9 °F 64.0 °F 71% 30.02 in 10.0 mi WSW 10.4 mph - N/A   Mostly Cloudy
7:53 PM 72.0 °F 64.0 °F 76% 30.03 in 10.0 mi West 8.1 mph - N/A   Mostly Cloudy
8:53 PM 70.0 °F 64.9 °F 84% 30.05 in 10.0 mi West 6.9 mph - N/A   Mostly Cloudy
9:53 PM 69.1 °F 64.0 °F 84% 30.05 in 10.0 mi WNW 6.9 mph - N/A   Mostly Cloudy
10:10 PM 69.8 °F 64.4 °F 83% 30.05 in 10.0 mi WNW 5.8 mph - N/A   Overcast
10:53 PM 69.1 °F 64.0 °F 84% 30.06 in 10.0 mi WNW 5.8 mph - N/A   Overcast
11:53 PM 66.9 °F 64.0 °F 90% 30.05 in 10.0 mi WNW 4.6 mph - N/A   Scattered Clouds